{"data":{"norad_id":69328,"intl_designator":"2025-272C","name":"SZ-22 MODULE","alt_names":[],"object_type":"PAYLOAD","status":"ACTIVE","operator":null,"country":"PRC","launch_date":"2025-11-25","launch_site_code":"JSC","launch_vehicle":null,"mission":null,"orbit_class":"UNKNOWN","rcs_meters":null,"size_class":null,"mass_kg":null,"dimensions":null,"purposes":[],"wikipedia_slug":null,"has_3d_model":false,"image_url":null,"decayed_at":null,"tle_current":{"epoch":"2026-09-19T20:51:25.736832Z","epoch_age_seconds":85360,"freshness":"FRESH","line1":"1 69328U 25272C   26262.86904788  .00017867  00000+0  18894-3 0  9995","line2":"2 69328  41.4791 105.0011 0005051  19.6937 340.4097 15.63734864 18137","mean_motion":15.63734864,"eccentricity":0.0005051,"inclination_deg":41.4791,"raan_deg":105.0011,"arg_perigee_deg":19.6937,"mean_anomaly_deg":340.4097,"bstar":0.00018894,"rev_number":1813,"period_min":92.087222274786,"perigee_km":373.46776605437,"apogee_km":380.29168394997,"semimajor_km":6755.0167250022,"source":"CELESTRAK","updated_at":"2026-09-20T09:00:24.819286Z"}}}